STARLINK-30239, 57291

Orbit data source: Space-Track

STARLINK-30239, 57291 is a payload satellite owned by SpaceX/Seattle (US) in LEO that was launched on Mon, 10 Jul 2023 UTC via an FALCON 9 launch vehicle from the Air Force Eastern Test Range (AFETR). Payload-class satellites include a variety of spacecraft equipped with specific instruments for various scientific and technological missions. These include communications satellites like Starlink; space stations such as the ISS; scientific satellites like the Hubble; Earth observation satellites from companies like Planet Labs, Umbra, and HawkEye 360; GPS; miniature CubeSats for education and research; and military/defense satellites.

Loading next visibility...
Identifier
57291, 2023-096B
Orbit
LEO
Country
Flag of USUS
Related business
Manufacturer
SpaceX/Seattle
Mission
Operational Commercial Communications
Bus & Motor
STARLINK V2M, Unknown motor
Mass
730 kg wet, ~700 kg dry
Launch date (UTC)
2023-07-10 (2 years ago)
Launch vehicle
FALCON 9
Launch site
Air Force Eastern Test Range (AFETR)
Object type
Payload
Rocket body
Debris
Shape & HBR
Box + 2 Pan, 14.5 m
Radar Cross Section
33.884 m², Large (>1 m²)

Expand to show TLE details & history
Last TLE update: 22 hours ago

TLE from 22 hours ago
0 STARLINK-30239
1 57291U 23096B   25241.17115882  .00000361  00000-0  41759-4 0  9991
2 57291  43.0003 189.6000 0001196 286.5110  73.5601 15.02534487118652
Epoch: 2025-08-29T04:06Z
TLE epoch observation values (Epoch: 2025-08-29T04:06:28.122Z)
Latitude
0.00001°
Longitude
150.3592°
Altitude
558.627 km
Speed
7.584 km/s
True Right ascension
12h 38m 24s
True Declination
0° 00' 00"
Sunlit
Object was in daylight at epoch
Visualization orbit readout
Latitude
Unknown
Longitude
Unknown
Altitude
Unknown
Speed
Unknown
Apparent Right ascension
Unknown
Apparent Declination
Unknown
Sunlit
N/A
Visualization observer readout
Local Sidereal Time
17:10:41
Azimuth
Unknown
Elevation
Unknown
Doppler factor
Unknown
Orbital elements
Apogee altitude
561.838 km
Perigee altitude
560.178 km
Semi-major axis
6,939.145 km
Eccentricity
0.00012
Inclination
43.0003°
RAAN
189.6°
Arg. of periapsis
286.511°
True anomaly
73.57325°
Mean anomaly
73.5601°
Eccentric anomaly
73.56667°
Mean motion
3.75478 °/min
Orbital period
95.88 mins
BSTAR
0.000041759
Loading maneuver chart data...
Computing Atmospheric mass density...
Loading historical data...
Loading historical data...
Loading historical data...
Loading historical data...
Loading historical data...
Loading historical data...
Loading historical data...

Documentation

Showing up to 5 results
|